Lone Rock, WI

4:20 PM CST on February 22, 2017 (GMT -0600)
Tri-County Regional

Weather History for KLNR - January, 2014

Change the Weather History Date:

Thursday, January 2, 2014

  Actual Average Record
Temperature  
Mean Temperature 0 °F -  
Max Temperature 12 °F 27 °F 46 °F (1998)
Min Temperature -17 °F 12 °F -17 °F (2014)
Degree Days  
Heating Degree Days 64    
Moisture  
Dew Point -6 °F    
Average Humidity 64    
Maximum Humidity 82    
Minimum Humidity 48    
Precipitation  
Precipitation 0.00 in - - ()
Sea Level Pressure  
Sea Level Pressure 30.40 in    
Wind  
Wind Speed 4 mph (NNW)    
Max Wind Speed 13 mph    
Max Gust Speed -    
Visibility 9 miles    
Events Snow    
Averages and records for this station are not official NWS values.
T = Trace of Precipitation, MM = Missing Value Source: NWS Daily Summary

Daily Weather History Graph

Daily Weather History Graph

Search for Another Location

Airport or City:

Trip Planner

Search our weather history database for the weather conditions in past years. The results will help you decide how hot, cold, wet, or windy it might be!

Date:

Astronomy

Jan. 02, 2014 Rise Set
Actual Time 7:32 AM CST 4:37 PM CST
Civil Twilight 7:00 AM CST 5:09 PM CST
Nautical Twilight 6:24 AM CST 5:45 PM CST
Astronomical Twilight 5:50 AM CST 6:19 PM CST
Moon 8:11 AM CST (1/2) 6:37 PM CST (1/2)
Length of Visible Light 10h 08m
Length of Day
9h 04m
Waxing Crescent, 3% of the Moon is Illuminated
Jan 2
Waxing Crescent
Jan 7
First Quarter
Jan 15
Full
Jan 23
Last Quarter
Jan 30
New

Hourly Weather History & Observations

Time (CST) Temp. Windchill Dew Point Humidity Pressure Visibility Wind Dir Wind Speed Gust Speed Precip Events Conditions
12:56 AM 9.0 °F - -6.0 °F 51% 30.34 in 10.0 mi Calm Calm - N/A   Overcast
1:20 AM 9.0 °F 0.6 °F -5.1 °F 53% 30.30 in 10.0 mi North 4.6 mph - N/A   Overcast
1:56 AM 9.0 °F 0.6 °F -5.1 °F 53% 30.34 in 10.0 mi North 4.6 mph - N/A   Overcast
2:56 AM 9.0 °F -0.9 °F -4.0 °F 56% 30.34 in 10.0 mi WNW 5.8 mph - N/A   Overcast
3:56 AM 9.0 °F 2.4 °F -2.9 °F 59% 30.32 in 10.0 mi North 3.5 mph - N/A   Overcast
4:56 AM 8.1 °F -0.5 °F -2.0 °F 64% 30.33 in 10.0 mi Variable 4.6 mph - N/A   Overcast
5:56 AM 8.1 °F -0.5 °F -2.0 °F 64% 30.34 in 7.0 mi NW 4.6 mph - 0.00 in Snow Light Snow
6:35 AM 8.1 °F -0.5 °F -0.9 °F 67% 30.31 in 5.0 mi Variable 4.6 mph - 0.00 in Snow Light Snow
6:56 AM 8.1 °F 1.4 °F -0.9 °F 67% 30.35 in 5.0 mi Variable 3.5 mph - 0.00 in Snow Light Snow
7:56 AM 7.0 °F -1.7 °F -0.9 °F 70% 30.36 in 4.0 mi North 4.6 mph - 0.00 in   Haze
8:56 AM 7.0 °F -3.3 °F -0.9 °F 70% 30.39 in 6.0 mi North 5.8 mph - 0.00 in   Haze
9:56 AM 7.0 °F -9.1 °F -0.9 °F 70% 30.41 in 6.0 mi North 12.7 mph - N/A   Haze
10:56 AM 9.0 °F -5.9 °F -0.9 °F 64% 30.40 in 10.0 mi North 11.5 mph - N/A   Overcast
11:56 AM 10.9 °F 1.4 °F -0.0 °F 61% 30.38 in 10.0 mi NNE 5.8 mph - N/A   Partly Cloudy
12:56 PM 12.0 °F -0.4 °F -0.9 °F 56% 30.38 in 10.0 mi NNW 9.2 mph - N/A   Mostly Cloudy
1:56 PM 10.9 °F 0.2 °F -2.0 °F 56% 30.39 in 10.0 mi NNW 6.9 mph - N/A   Mostly Cloudy
2:56 PM 12.0 °F -2.0 °F -2.0 °F 53% 30.40 in 10.0 mi North 11.5 mph - N/A   Partly Cloudy
3:56 PM 10.9 °F -0.8 °F -4.0 °F 51% 30.42 in 10.0 mi North 8.1 mph - N/A   Clear
4:56 PM 9.0 °F -3.2 °F -7.1 °F 48% 30.44 in 10.0 mi NNW 8.1 mph - N/A   Clear
5:56 PM 1.9 °F -5.6 °F -9.0 °F 60% 30.46 in 10.0 mi West 3.5 mph - N/A   Clear
6:56 PM 1.0 °F - -9.0 °F 63% 30.47 in 10.0 mi Calm Calm - N/A   Clear
7:56 PM -6.0 °F - -13.0 °F 72% 30.47 in 10.0 mi Calm Calm - N/A   Clear
8:56 PM -11.9 °F -21.5 °F -16.1 °F 82% 30.48 in 10.0 mi SW 3.5 mph - N/A   Clear
9:56 PM -11.9 °F -21.5 °F -16.1 °F 82% 30.50 in 10.0 mi West 3.5 mph - N/A   Clear
10:56 PM -11.9 °F - -17.0 °F 78% 30.48 in 9.0 mi Calm Calm - N/A   Clear
11:56 PM -17.0 °F - -20.9 °F 82% 30.48 in 9.0 mi Calm Calm - N/A   Clear